Weather Roundup
Issued by NWS Chicago, IL

Home | Current Version | Previous Version | Text Only | Print | Product List | Glossary Off
Versions: 1 2 3 4 5 6 7 8 9 10 11 12 13 14 15 16 17 18 19 20 21 22 23 24 25 26 27 28 29 30 31 32 33 34 35 36 37 38 39 40 41 42 43 44 45 46 47 48 49 50

000
NZUS59 KLOT 270404
HRRLOT

CHICAGO AREA WEATHER ROUNDUP
NATIONAL WEATHER SERVICE CHICAGO/ROMEOVILLE IL
1100 PM CDT TUE JUL 26 2016

NOTE: "FAIR" INDICATES FEW OR NO CLOUDS BELOW 12,000 FEET WITH NO
SIGNIFICANT WEATHER AND/OR OBSTRUCTIONS TO VISIBILITY.

* THESE STATIONS ARE NOT UNDER NWS QUALITY CONTROL. THEY ALSO MAY NOT
  REPORT WEATHER SUCH AS PRECIPITATION OR FOG.

ILZ005-006-012>014-019>023-270500-
NORTHEAST ILLINOIS

CITY           SKY/WX    TMP DP  RH WIND       PRES   REMARKS
OHARE          PTCLDY    76  62  62 S5        30.01S
MIDWAY         PTCLDY    79  61  53 S5        30.01S HX  80
AURORA         CLEAR     71  68  90 CALM      30.02S
LANSING*       MOCLDY    71  64  78 S5        30.02S
WAUKEGAN       CLEAR     70  63  78 SW3       30.01R
DUPAGE AIRPORT CLEAR     73  65  75 CALM      30.02S
WHEELING       CLEAR     73  64  73 CALM      30.02F
KANKAKEE*      PTCLDY    71  69  93 CALM      30.04R
MORRIS*        PTCLDY    72  70  91 CALM      30.01S
NORTHERLY ISL    N/A     73  68  84 S5          N/A
$$

WIZ051-052-058>065-066-070>072-270500-
SOUTHEAST WISCONSIN

CITY           SKY/WX    TMP DP  RH WIND       PRES   REMARKS
MILWAUKEE      CLEAR     77  62  59 CALM      30.02R
KENOSHA*       CLEAR     70  63  78 SW3       30.02R
RACINE*        CLEAR     74  63  68 SW3       30.03R
BURLINGTON     CLEAR     67  65  95 CALM      30.02R
WAUKESHA       CLEAR     68  63  83 CALM      30.03S
$$

INZ001>003-010>013-019-020-270500-
NORTHWEST INDIANA

CITY           SKY/WX    TMP DP  RH WIND       PRES   REMARKS
GARY*          CLEAR     73  70  88 S3        30.02S
MICHIGAN CITY* NOT AVBL
RENSSELAER*    NOT AVBL
VALPARAISO     PTCLDY    69  65  86 CALM      30.04R
$$

LMZ740>746-270500-
SOUTHERN LAKE MICHIGAN

STATION/POSITION TIME  SKY/WX   TEMP WIND        PRES    VSBY
                                AIR  DIR/SP/G
                 (UTC)          (F)  (DEG/KT/KT) (MB)    (MI)
HARRISON CRIB    0300            76  180/  4/  4   N/A
BURNHAM HARBOR   0400            73  170/  3/  5   N/A
CALUMET HARBOR   0300                150/  1/  4   N/A
BURNS HARBOR     0300            76   90/  5/ 10 1016.9
MICHIGAN CITY    0300            75   80/  3/  3   N/A
$$

ABBREVIATIONS USED IN REMARKS
   TC - TEMPERATURE IN CELSIUS
  WCI - WIND CHILL INDEX
   HX - HEAT INDEX
  VSB - VISIBILITY
$$




USA.gov is the U.S. government's official web portal to all federal, state and local government web resources and services.